{"data":{"norad_id":63316,"epoch":"2026-09-20T10:32:00.327552Z","epoch_age_seconds":164147,"freshness":"FRESH","line1":"1 63316U 25057K   26263.43889268  .00101154  00000+0  78105-3 0  9990","line2":"2 63316  42.9994 170.9089 0000916  11.0985 348.9903 15.70876988 87833","mean_motion":15.70876988,"eccentricity":9.16e-5,"inclination_deg":42.9994,"raan_deg":170.9089,"arg_perigee_deg":11.0985,"mean_anomaly_deg":348.9903,"bstar":0.00078105,"rev_number":8783,"period_min":91.668539993916,"perigee_km":355.77246240333,"apogee_km":357.00622762973,"semimajor_km":6734.5263450165,"source":"CELESTRAK","updated_at":"2026-09-21T09:00:34.968778Z"}}